Wind_Speed
31 30 29 29 29 29 29 27 25 23 23 20 19 17 16 16 15 14 14 13 12 12 12 12 11 11 11 11 12 12 12 12 13 13 14 15 16 17 17 18 17 17 18 18
32 31 31 31 30 30 30 30 29 27 25 22 21 20 18 18 18 17 16 16 15 15 15 14 14 14 13 14 14 14 14 15 15 15 15 16 17 18 18 19 19 19 19 19
31 32 31 33 31 31 31 31 30 29 27 25 24 22 21 21 20 19 19 18 18 17 18 17 17 16 16 16 16 16 16 17 17 17 17 18 18 19 20 20 20 21 20 20
31 31 32 32 31 31 31 31 31 31 30 29 27 25 24 23 22 22 21 21 20 20 20 20 19 19 18 18 18 18 18 18 18 18 19 19 20 20 21 22 22 22 21 21
32 31 32 32 32 31 31 31 31 32 31 30 29 27 27 25 24 23 23 22 22 22 22 22 21 21 21 20 20 19 19 19 20 20 20 21 21 21 22 23 23 23 23 23
33 31 30 31 32 31 30 31 31 31 30 30 29 29 27 26 26 25 25 24 24 24 23 22 23 23 23 22 21 21 22 21 21 21 21 22 22 22 23 24 24 24 25 25
34 33 32 33 33 32 32 32 31 31 30 30 30 29 28 27 27 27 26 26 26 25 24 24 24 24 24 24 24 24 23 23 23 23 23 24 24 25 25 26 25 26 27 27
34 33 34 35 34 34 34 33 32 32 31 31 31 30 29 29 28 28 28 28 28 27 26 26 25 25 25 25 26 26 25 26 26 26 27 27 27 27 28 28 27 27 27 27
35 35 35 35 34 34 34 33 33 33 32 32 31 31 31 30 30 30 30 30 31 30 29 28 28 28 28 28 28 27 27 28 28 29 29 30 30 30 30 31 30 29 29 28
35 36 36 36 35 35 35 35 34 34 34 34 33 32 31 31 31 31 32 32 31 32 32 30 30 30 30 30 30 30 30 30 30 31 31 32 32 32 32 31 31 31 30 30
36 36 36 36 36 36 36 36 36 35 35 35 35 34 33 32 32 33 33 33 33 32 32 32 32 32 32 32 33 33 33 33 33 33 33 33 33 33 32 32 32 32 31 30
35 35 36 36 37 37 37 37 36 36 36 36 36 35 34 34 33 33 33 34 34 34 34 33 34 34 34 35 35 35 35 35 34 34 34 34 34 34 34 33 33 33 32 31
34 35 35 36 36 36 37 36 36 37 37 36 36 36 36 35 35 35 34 34 35 35 34 34 35 36 37 36 36 37 37 37 35 35 35 35 34 35 35 34 33 32 32 32
34 35 35 35 35 35 35 35 36 36 36 35 35 36 36 36 36 36 36 36 36 35 35 35 36 37 37 37 37 37 37 36 35 34 35 36 35 35 34 34 33 33 33 33
34 34 34 34 34 34 34 34 35 35 35 35 34 35 35 35 35 35 36 36 35 35 35 36 36 36 37 37 36 36 37 37 37 36 36 36 35 35 35 34 34 34 34 34
33 33 33 33 33 32 32 33 33 34 33 33 33 34 35 35 35 35 35 34 34 35 35 35 36 36 37 37 37 37 37 36 36 36 37 36 36 36 35 34 34 35 35 34
33 33 33 33 32 32 31 32 32 32 33 33 33 34 35 36 36 35 34 34 34 35 35 36 36 37 37 37 37 37 37 36 36 36 36 36 36 36 35 35 35 35 35 35
32 32 32 31 31 31 31 30 31 31 31 32 32 32 34 35 35 35 34 35 35 35 36 36 36 36 37 38 38 38 38 36 35 35 35 35 35 36 36 35 36 35 35 35
31 30 31 31 31 30 30 31 31 31 31 31 32 32 32 33 34 35 34 34 35 35 35 35 36 36 36 37 36 36 35 34 34 34 35 34 35 36 36 35 34 35 35 35
30 30 30 30 30 30 30 30 30 30 30 31 30 31 32 32 32 33 33 34 35 34 33 33 33 33 33 33 33 33 34 33 33 33 34 34 34 34 34 34 33 34 34 34
28 29 28 29 29 30 30 30 29 29 29 28 29 30 30 31 31 31 32 32 33 33 32 31 31 32 33 33 33 33 33 33 33 33 33 33 33 33 33 33 33 33 33 34
25 27 28 28 28 28 29 29 29 28 28 28 27 28 29 30 30 30 30 29 30 30 30 31 31 32 33 33 33 33 33 33 33 33 32 32 32 33 33 33 32 33 33 33
22 24 25 26 26 26 26 27 27 28 27 26 26 26 26 27 27 28 27 27 28 29 29 30 31 32 32 32 32 32 33 33 33 33 32 33 32 32 32 32 32 32 33 33
20 22 23 23 24 24 25 25 26 27 26 26 26 26 26 27 28 28 29 29 29 29 30 30 30 31 31 32 32 32 32 31 31 31 32 32 32 32 32 32 32 32 32 32
19 20 21 21 23 24 24 24 24 25 25 25 25 25 26 26 27 28 28 29 29 29 29 29 30 30 31 32 32 31 31 31 31 31 31 32 32 31 30 31 31 31 31 30
15 16 17 17 19 20 21 22 22 23 24 24 24 25 25 26 26 26 26 27 27 28 28 28 28 29 30 30 30 31 30 30 30 31 31 31 31 30 29 30 30 30 30 29
12 13 14 15 17 18 19 20 20 21 21 21 22 22 22 23 22 23 24 24 25 25 26 26 27 28 29 29 30 30 30 30 30 30 30 29 28 28 28 29 29 29 29 29
Wind_Direction
229 230 233 236 238 239 240 240 243 248 252 253 253 256 258 262 265 268 275 280 282 286 292 298 305 309 310 312 315 318 319 321 322 326 329 332 333 334 335 337 336 335 334 333
232 233 235 238 239 240 242 243 245 248 252 255 255 255 255 257 259 262 265 270 274 278 281 288 293 298 300 304 308 311 313 317 316 317 321 325 327 328 328 330 331 332 331 330
234 235 237 239 239 241 244 246 247 249 251 253 254 253 251 252 254 258 261 262 267 270 274 281 285 290 292 295 301 305 307 310 312 312 315 317 319 321 322 323 325 325 325 326
236 237 236 240 241 241 243 246 247 249 251 252 252 252 252 251 251 254 257 260 262 266 270 274 279 283 287 291 294 297 300 303 307 309 310 311 312 314 317 318 319 320 320 321
237 239 241 241 241 242 243 245 246 248 250 251 251 252 251 251 251 251 253 257 260 263 266 269 273 278 282 286 288 290 293 298 303 305 306 306 307 308 312 315 317 316 316 317
236 236 240 242 242 241 243 245 244 246 248 249 249 251 249 248 248 248 250 254 257 261 264 267 270 274 278 281 284 286 290 294 299 301 304 305 303 304 306 310 313 314 313 313
238 239 242 243 243 244 244 245 245 245 246 248 248 249 249 248 248 248 249 251 254 259 263 266 269 272 274 277 281 285 286 289 293 297 300 301 302 303 304 307 309 309 310 310
240 241 243 244 244 243 245 245 246 246 246 247 248 248 248 248 249 249 251 253 255 257 260 265 268 270 273 276 279 282 283 286 289 292 295 298 300 300 301 303 304 305 308 309
241 242 245 246 246 246 246 246 246 245 246 247 247 248 248 248 249 250 252 254 256 257 258 261 265 268 270 273 277 279 281 284 287 289 292 294 296 297 299 301 301 300 303 305
244 245 246 247 248 248 248 247 247 247 246 246 247 247 248 248 248 250 253 255 256 256 257 259 263 265 268 272 278 281 282 283 285 288 290 291 292 294 295 297 299 298 298 301
245 247 249 249 249 249 249 249 248 247 247 247 246 247 249 250 251 253 254 255 255 255 256 258 260 264 268 273 276 279 280 282 284 287 289 291 292 291 292 294 296 296 296 297
246 247 248 249 250 250 249 249 248 248 248 247 247 248 249 251 252 253 253 253 254 255 255 258 260 264 269 273 275 276 278 281 284 287 289 289 289 289 291 291 292 293 294 296
247 248 250 251 251 251 251 250 248 247 247 247 248 249 250 251 253 253 253 253 254 256 257 259 262 265 268 271 273 275 278 280 283 285 288 289 288 289 290 291 292 292 293 294
248 250 250 251 251 250 249 248 246 245 245 247 249 249 250 251 252 254 255 255 256 256 258 260 263 265 267 269 271 274 277 280 282 284 287 287 287 288 290 290 290 290 291 292
248 248 249 249 249 249 248 246 244 245 245 247 248 248 248 248 250 252 254 254 255 256 258 260 262 264 266 268 271 273 277 279 282 285 288 287 286 285 287 288 289 289 290 291
246 247 247 246 246 247 246 244 243 244 245 246 248 248 247 247 249 251 251 251 253 256 258 259 262 264 266 269 271 274 277 279 281 284 285 285 286 285 286 288 289 289 291 291
244 246 244 242 242 243 242 242 243 245 244 246 247 247 247 248 249 251 251 251 254 257 259 261 264 266 269 272 273 274 276 278 281 282 284 284 285 288 286 287 289 290 291 291
242 242 241 239 240 239 240 242 243 244 245 246 247 247 247 248 250 252 252 253 255 257 259 261 264 267 270 271 273 274 276 277 278 280 283 285 286 289 287 286 288 290 291 291
240 239 240 239 239 240 240 243 243 244 246 247 247 248 248 249 251 253 253 253 255 257 259 262 264 267 270 271 271 273 274 277 279 282 285 286 288 289 288 287 288 289 290 290
241 241 240 240 240 240 241 243 244 245 247 248 248 248 250 251 252 252 252 252 254 258 261 263 265 269 270 271 273 274 276 279 281 284 285 287 288 288 289 288 288 289 290 290
241 240 239 237 238 240 242 244 246 246 247 249 250 250 249 251 253 253 253 254 256 260 264 267 269 271 272 274 275 277 279 281 282 284 285 287 288 288 288 289 289 290 291 291
241 239 238 238 237 238 241 243 245 247 250 250 250 250 251 252 255 259 257 258 260 263 266 269 271 272 273 275 277 279 280 281 282 283 285 286 288 288 288 289 289 290 290 291
240 238 238 240 240 241 241 242 242 244 246 247 250 252 253 254 257 259 259 259 262 265 267 269 272 274 275 277 278 280 282 282 282 284 285 287 287 287 287 287 288 288 290 291
243 240 239 239 240 242 242 242 244 245 246 249 250 252 254 257 259 261 262 263 265 268 271 273 275 276 278 278 278 281 283 283 283 283 285 286 285 285 286 287 287 287 290 292
244 242 239 238 238 240 242 243 244 245 247 248 250 253 256 259 262 262 262 263 266 270 273 275 277 278 278 279 280 282 283 282 282 284 285 286 286 285 285 286 287 289 290 291
245 242 241 240 240 239 240 241 244 248 250 251 253 255 258 260 261 262 264 265 268 271 274 276 278 278 279 280 281 283 284 283 283 284 286 286 287 285 285 287 288 289 289 289
249 251 252 251 247 246 247 247 248 250 251 252 255 257 257 257 258 261 264 267 270 274 276 278 279 279 280 282 283 283 283 283 283 284 284 285 285 285 286 287 289 291 290 290
Height
5887 5891 5894 5896 5899 5902 5905 5909 5912 5914 5915 5917 5919 5920 5921 5921 5921 5922 5922 5922 5921 5920 5920 5919 5918 5917 5915 5914 5912 5910 5909 5907 5905 5903 5901 5899 5896 5893 5890 5887 5884 5881 5878 5876
5881 5884 5887 5890 5893 5896 5898 5901 5904 5907 5910 5912 5913 5915 5916 5916 5917 5917 5918 5918 5918 5917 5917 5916 5915 5914 5913 5912 5910 5908 5907 5905 5902 5900 5898 5896 5894 5891 5888 5885 5882 5879 5876 5873
5874 5877 5880 5883 5886 5889 5892 5894 5898 5900 5904 5905 5907 5908 5910 5911 5912 5912 5913 5913 5913 5913 5913 5913 5912 5911 5910 5909 5907 5906 5904 5902 5900 5898 5895 5893 5891 5888 5886 5883 5879 5876 5873 5870
5867 5871 5873 5878 5880 5882 5885 5888 5890 5892 5895 5898 5900 5902 5903 5905 5906 5907 5908 5908 5908 5908 5908 5908 5907 5907 5906 5905 5904 5902 5900 5899 5897 5895 5892 5890 5887 5885 5882 5879 5876 5873 5869 5866
5860 5862 5866 5869 5871 5875 5878 5880 5882 5884 5887 5889 5892 5894 5896 5898 5899 5900 5901 5902 5902 5902 5902 5902 5902 5902 5901 5900 5899 5897 5896 5894 5893 5890 5888 5885 5883 5881 5878 5875 5872 5868 5865 5862
5852 5855 5859 5862 5864 5867 5871 5872 5874 5876 5879 5881 5884 5886 5889 5890 5891 5893 5894 5895 5896 5896 5896 5896 5896 5896 5895 5895 5894 5892 5891 5890 5888 5886 5883 5880 5878 5876 5873 5870 5867 5864 5861 5858
5843 5847 5850 5853 5855 5859 5863 5864 5866 5868 5871 5873 5875 5878 5881 5882 5884 5885 5887 5888 5889 5889 5890 5890 5890 5890 5889 5889 5888 5887 5885 5885 5883 5881 5879 5876 5874 5871 5868 5865 5862 5859 5856 5852
5835 5839 5843 5843 5846 5849 5852 5855 5857 5859 5862 5864 5867 5869 5872 5874 5876 5878 5879 5880 5881 5882 5883 5883 5883 5883 5883 5883 5882 5880 5879 5878 5877 5875 5872 5870 5868 5865 5862 5859 5856 5853 5849 5846
5827 5831 5832 5834 5836 5839 5842 5845 5847 5850 5853 5856 5858 5861 5863 5866 5868 5869 5871 5872 5873 5874 5875 5876 5876 5876 5876 5875 5874 5873 5872 5871 5869 5867 5865 5863 5860 5858 5855 5852 5849 5846 5843 5840
5817 5820 5822 5825 5827 5829 5832 5835 5838 5841 5844 5846 5849 5852 5854 5857 5859 5860 5862 5864 5865 5866 5867 5868 5868 5868 5868 5868 5867 5866 5865 5864 5862 5860 5857 5855 5852 5850 5847 5844 5841 5838 5835 5832
5807 5810 5813 5815 5817 5820 5822 5825 5828 5831 5834 5837 5840 5843 5845 5847 5850 5851 5853 5855 5856 5857 5859 5860 5860 5860 5860 5860 5859 5858 5857 5855 5853 5851 5848 5846 5844 5842 5839 5836 5833 5831 5828 5825
5798 5801 5803 5806 5808 5809 5812 5814 5818 5821 5824 5827 5830 5833 5835 5838 5840 5842 5843 5845 5847 5848 5849 5851 5851 5851 5851 5851 5850 5849 5848 5846 5844 5842 5840 5837 5835 5833 5830 5828 5825 5822 5819 5817
5788 5790 5793 5795 5797 5799 5801 5804 5807 5810 5814 5817 5820 5823 5825 5828 5830 5832 5834 5836 5837 5838 5839 5841 5842 5842 5842 5841 5840 5839 5838 5836 5834 5832 5830 5827 5825 5824 5821 5818 5815 5813 5810 5807
5778 5780 5783 5785 5787 5789 5792 5794 5797 5800 5804 5807 5810 5813 5815 5818 5820 5822 5824 5826 5827 5828 5829 5831 5831 5831 5831 5831 5830 5829 5828 5825 5824 5822 5820 5818 5816 5814 5812 5809 5806 5804 5801 5798
5769 5771 5773 5776 5778 5780 5782 5785 5788 5791 5794 5797 5800 5802 5805 5808 5810 5812 5814 5815 5817 5818 5819 5820 5820 5821 5820 5820 5819 5819 5818 5816 5814 5812 5810 5808 5806 5804 5801 5799 5796 5794 5791 5789
5760 5762 5764 5766 5769 5771 5773 5776 5779 5782 5785 5788 5790 5793 5795 5798 5800 5802 5803 5805 5806 5808 5809 5809 5810 5810 5810 5809 5809 5808 5807 5805 5804 5802 5800 5798 5796 5793 5791 5789 5786 5784 5781 5779
5750 5753 5755 5757 5760 5762 5765 5768 5770 5773 5776 5779 5781 5783 5785 5788 5790 5792 5793 5795 5796 5797 5798 5799 5799 5799 5799 5798 5798 5797 5796 5794 5793 5791 5789 5787 5785 5783 5781 5778 5776 5774 5771 5769
5741 5743 5746 5749 5751 5754 5756 5759 5762 5765 5767 5769 5771 5774 5776 5778 5780 5782 5784 5785 5786 5787 5788 5788 5788 5789 5788 5787 5786 5785 5784 5783 5782 5780 5779 5777 5775 5773 5770 5767 5766 5763 5761 5758
5731 5734 5737 5740 5742 5745 5748 5751 5753 5756 5758 5760 5762 5764 5766 5768 5770 5772 5774 5775 5776 5777 5777 5777 5778 5778 5777 5776 5775 5774 5773 5772 5771 5770 5768 5766 5764 5762 5759 5757 5755 5753 5750 5748
5723 5725 5728 5731 5734 5737 5740 5742 5745 5748 5750 5751 5753 5755 5757 5759 5761 5762 5763 5765 5766 5766 5767 5767 5767 5767 5766 5765 5764 5764 5763 5762 5761 5759 5758 5756 5754 5751 5749 5747 5745 5743 5740 5737
5715 5717 5720 5723 5725 5729 5731 5734 5737 5739 5741 5743 5744 5746 5748 5750 5751 5752 5753 5755 5756 5756 5757 5757 5757 5757 5757 5756 5755 5754 5753 5751 5750 5749 5747 5745 5743 5741 5739 5737 5735 5732 5729 5727
5707 5710 5712 5715 5718 5721 5724 5726 5728 5731 5733 5735 5736 5738 5740 5741 5742 5743 5744 5745 5746 5747 5747 5748 5748 5748 5747 5746 5745 5744 5743 5741 5740 5738 5737 5735 5733 5731 5729 5727 5724 5722 5719 5717
5700 5703 5705 5708 5710 5713 5716 5718 5720 5722 5724 5726 5728 5730 5731 5733 5734 5735 5736 5737 5737 5738 5738 5739 5739 5738 5737 5736 5735 5734 5733 5731 5730 5728 5726 5724 5722 5720 5718 5716 5714 5712 5709 5706
5694 5697 5699 5701 5703 5706 5709 5711 5713 5715 5717 5719 5721 5722 5724 5725 5726 5727 5728 5729 5729 5729 5730 5730 5729 5729 5728 5727 5726 5725 5723 5721 5720 5718 5716 5714 5712 5710 5708 5706 5704 5702 5699 5696
5689 5691 5693 5695 5697 5699 5702 5704 5705 5707 5709 5711 5713 5714 5716 5717 5718 5719 5720 5720 5721 5721 5721 5721 5720 5719 5719 5717 5716 5715 5713 5711 5710 5708 5706 5704 5702 5700 5698 5696 5694 5691 5689 5686
5685 5686 5688 5689 5691 5693 5695 5697 5699 5700 5702 5704 5705 5707 5708 5709 5710 5711 5712 5712 5712 5712 5712 5712 5711 5710 5709 5707 5706 5705 5703 5701 5700 5698 5696 5694 5691 5690 5688 5686 5684 5681 5679 5677
5682 5683 5684 5685 5686 5688 5689 5691 5693 5694 5695 5697 5698 5700 5701 5702 5702 5703 5704 5705 5705 5704 5704 5703 5702 5700 5699 5697 5696 5695 5693 5691 5690 5688 5686 5684 5682 5680 5678 5677 5674 5672 5670 5668